[[{"header":{"parameterUnit":"m.s-1","parameterCategory":2,"la1":30.2992,"la2":30.254,"lo1":-89.0895,"lo2":-89.0443,"dy":0.0025,"dx":0.0025,"nx":19,"ny":19,"refTime":"2026-05-16T09:00:00:Z","depth":"0","parameterNumber":2,"parameterNumberName":"U-component_of_CURRENTS"},"data":[0,0,0,-0.1259,-0.126,-0.1308,-0.1309,-0.1222,-0.1221,0,0,0,0,0,0,0,0,0,0,0,-0.1231,-0.1231,-0.1258,-0.126,-0.1308,-0.1309,-0.1223,-0.1221,0,0,0,0,0,0,0,0,0,0,0,-0.1231,-0.1231,-0.1231,-0.126,-0.1308,-0.1309,-0.1223,-0.1221,0,0,0,0,0,0,0,0,0,0,-0.1191,-0.1185,-0.1231,-0.1231,-0.1261,-0.1308,-0.1309,-0.1222,-0.1221,-0.1161,0,-0.1172,0,-0.1199,-0.1213,-0.1212,0,0,0,-0.1251,-0.1186,-0.1208,-0.1231,-0.1261,-0.1308,-0.1284,-0.1222,-0.1221,-0.1158,-0.1171,-0.1169,-0.1198,-0.1212,-0.1211,-0.1226,-0.1227,0,0,-0.1248,-0.1227,-0.1209,-0.1207,-0.1274,-0.1282,-0.1286,-0.1223,-0.1212,-0.1171,-0.1168,-0.1196,-0.1211,-0.121,-0.1225,-0.1226,0,0,0,-0.1247,-0.1225,-0.125,-0.1209,-0.1233,-0.1284,-0.1288,-0.1215,-0.1226,-0.1168,-0.1195,-0.1211,-0.1209,-0.1223,-0.1225,-0.1323,0,0,0,-0.1244,-0.1225,-0.1249,-0.1235,-0.1235,-0.1244,-0.128,-0.123,-0.1225,-0.1196,-0.1211,-0.1208,-0.1222,-0.1224,-0.1317,-0.1398,0,0,0,-0.1228,-0.1223,-0.1232,-0.1234,-0.1263,-0.1247,-0.1255,-0.1231,-0.1241,-0.1212,-0.1208,-0.1221,-0.1224,-0.1313,-0.1389,-0.1536,0,0,0,-0.1201,-0.1231,-0.1231,-0.1273,-0.1262,-0.1323,-0.1256,-0.1276,-0.1261,-0.121,-0.1222,-0.1225,-0.1311,-0.1383,-0.1529,-0.1368,-0.1387,0,0,-0.1231,-0.1233,-0.1264,-0.1267,-0.1336,-0.1315,-0.1385,-0.1329,-0.1279,-0.1227,-0.1228,-0.1319,-0.1388,-0.1534,-0.1517,-0.1531,0,0,0,-0.127,-0.1285,-0.1309,-0.1345,-0.1382,-0.1432,-0.1391,-0.14,-0.139,-0.1285,-0.1344,-0.1386,-0.1475,-0.1363,-0.1376,-0.1321,-0.1237,-0.1237,-0.1236,-0.1254,-0.13,-0.1349,-0.1403,-0.1444,-0.1501,-0.1567,-0.1568,-0.1456,-0.1494,-0.1482,-0.1688,-0.1567,-0.1575,-0.152,-0.1482,-0.1482,-0.1482,-0.1483,-0.1283,-0.1304,-0.1372,-0.1432,-0.1502,-0.1546,-0.167,-0.1668,-0.1773,-0.1633,-0.1713,-0.1491,-0.1594,-0.1531,-0.1489,-0.1488,-0.1487,-0.1487,-0.1486,-0.1247,-0.1265,-0.1311,-0.1393,-0.1484,-0.1564,-0.1732,-0.1821,-0.187,-0.1966,-0.183,-0.1825,-0.176,-0.1971,-0.1972,-0.1973,-0.1974,-0.1975,-0.1975,-0.1171,-0.1229,-0.1244,-0.135,-0.1392,-0.1519,-0.1765,-0.1894,-0.1986,-0.1971,-0.1969,-0.1818,-0.1838,-0.1808,-0.1991,-0.1988,-0.1986,-0.1985,-0.1984,-0.1111,-0.1117,-0.1146,-0.1183,-0.1306,-0.1387,-0.1679,-0.1895,-0.2071,-0.2089,-0.1926,-0.1994,-0.1967,-0.1951,-0.1924,-0.2129,-0.2129,-0.2129,-0.2129,-0.1029,-0.1049,-0.1031,-0.1061,-0.1168,-0.1311,-0.1447,-0.1665,-0.1854,-0.1867,-0.1962,-0.1766,-0.1762,-0.1714,-0.1704,-0.1668,-0.1804,-0.1804,-0.1804,-0.0963,-0.0969,-0.092,-0.0956,-0.1066,-0.1182,-0.1216,-0.1336,-0.1603,-0.1794,-0.1939,-0.1953,-0.1664,-0.1663,-0.1574,-0.1565,-0.15,0,0]},{"header":{"parameterUnit":"m.s-1","parameterCategory":2,"la1":30.2992,"la2":30.254,"lo1":-89.0895,"lo2":-89.0443,"dy":0.0025,"dx":0.0025,"nx":19,"ny":19,"refTime":"2026-05-16T09:00:00:Z","depth":"0","parameterNumber":3,"parameterNumberName":"V-component_of_CURRENTS"},"data":[0,0,0,0.0166,0.0168,0.0292,0.0292,0.0443,0.0444,0,0,0,0,0,0,0,0,0,0,0,0.0116,0.0116,0.0166,0.0168,0.0292,0.0292,0.0442,0.0444,0,0,0,0,0,0,0,0,0,0,0,0.0116,0.0116,0.0117,0.0169,0.0292,0.0292,0.0442,0.0354,0,0,0,0,0,0,0,0,0,0,0.0237,0.0181,0.0116,0.0117,0.0169,0.0291,0.0293,0.035,0.036,0.038,0,0.0386,0,0.0415,0.0452,0.0453,0,0,0,0.0183,0.0173,0.021,0.0117,0.017,0.0291,0.024,0.0356,0.0366,0.0392,0.0388,0.0394,0.0418,0.0453,0.0454,0.0504,0.0504,0,0,0.0176,0.014,0.0203,0.0217,0.0186,0.0236,0.0244,0.0362,0.0364,0.0389,0.0398,0.042,0.0454,0.0455,0.0505,0.0504,0,0,0,0.0146,0.0135,0.017,0.021,0.0232,0.0239,0.0248,0.0359,0.0371,0.04,0.0422,0.0455,0.0456,0.0505,0.0505,0.0388,0,0,0,0.0143,0.0117,0.0167,0.0147,0.0229,0.0296,0.0241,0.0363,0.0377,0.0421,0.0455,0.0458,0.0506,0.0505,0.0392,0.0321,0,0,0,0.0113,0.0115,0.0124,0.0145,0.0194,0.0295,0.0315,0.0367,0.039,0.0453,0.0458,0.0506,0.0505,0.0396,0.0329,0.0312,0,0,0,0.008,0.0061,0.0123,0.0112,0.0192,0.0239,0.0315,0.0365,0.0411,0.0455,0.0506,0.0505,0.0397,0.0333,0.0316,0.0423,0.0413,0,0,0.0032,0.0054,0.0048,0.0107,0.0111,0.0224,0.0235,0.0331,0.0404,0.047,0.0472,0.0391,0.0329,0.0313,0.0368,0.036,0,0,0,0.0018,0.0004,0.002,0.004,0.0106,0.0142,0.0255,0.0297,0.0357,0.0426,0.0404,0.0369,0.0363,0.0436,0.0429,0.066,0.05,0.05,0.0501,-0.0096,-0.006,-0.0087,-0.0042,-0.0007,0.0094,0.0127,0.0205,0.0299,0.0301,0.0284,0.0202,0.0279,0.0275,0.0511,0.0308,0.0308,0.0307,0.0307,-0.0199,-0.0215,-0.0184,-0.0197,-0.0137,-0.0106,-0.0005,0.0061,0.0116,0.019,0.0191,0.0321,0.0262,0.0516,0.03,0.0301,0.0302,0.0303,0.0303,-0.0275,-0.0282,-0.0289,-0.0317,-0.0321,-0.0236,-0.0263,-0.0151,-0.0011,-0.0014,0.0132,0.0137,0.0354,0.001,0.001,0.001,0.0009,0.0009,0.0009,-0.034,-0.0353,-0.0415,-0.044,-0.047,-0.0486,-0.0409,-0.0355,-0.0151,0.0005,0.0007,0.0365,0.0113,0.0117,0.0002,0.0004,0.0004,0.0005,0.0005,-0.0412,-0.0421,-0.0525,-0.0579,-0.0676,-0.0744,-0.0643,-0.0403,-0.0293,-0.0138,0.0347,0.0045,0.01,0.0109,0.0116,0.0006,0.0006,0.0006,0.0006,-0.0455,-0.0471,-0.0618,-0.0742,-0.0868,-0.0871,-0.0722,-0.0338,0.018,0.0449,0.0476,0.0601,0.059,0.0681,0.0677,0.0699,0.074,0.0742,0.0743,-0.05,-0.0544,-0.0662,-0.0793,-0.0953,-0.0998,-0.0743,-0.007,0.061,0.0793,0.077,0.0739,0.0942,0.0908,0.107,0.1045,0.1087,0,0]}],[{"header":{"parameterUnit":"m.s-1","parameterCategory":2,"la1":30.2992,"la2":30.254,"lo1":-89.0895,"lo2":-89.0443,"dy":0.0025,"dx":0.0025,"nx":19,"ny":19,"refTime":"2026-05-16T09:00:00:Z","depth":"2","parameterNumber":2,"parameterNumberName":"U-component_of_CURRENTS"},"data":[0,0,0,-0.1186,-0.1187,-0.1235,-0.1235,-0.1131,-0.113,0,0,0,0,0,0,0,0,0,0,0,-0.1159,-0.1159,-0.1186,-0.1187,-0.1235,-0.1235,-0.1131,-0.113,0,0,0,0,0,0,0,0,0,0,0,-0.1159,-0.1159,-0.116,-0.1187,-0.1235,-0.1235,-0.1132,-0.1134,0,0,0,0,0,0,0,0,0,0,-0.1107,-0.1105,-0.1159,-0.116,-0.1188,-0.1235,-0.1235,-0.1136,-0.1134,-0.1066,0,-0.1078,0,-0.1106,-0.112,-0.1119,0,0,0,-0.1177,-0.1108,-0.1128,-0.116,-0.1188,-0.1235,-0.121,-0.1136,-0.1133,-0.1062,-0.1077,-0.1075,-0.1104,-0.1119,-0.1118,-0.1058,-0.1059,0,0,-0.1174,-0.1154,-0.113,-0.1127,-0.1203,-0.1209,-0.1212,-0.1136,-0.1125,-0.1077,-0.1073,-0.1102,-0.1118,-0.1117,-0.1058,-0.1058,0,0,0,-0.1174,-0.1152,-0.1178,-0.1129,-0.1154,-0.1211,-0.1214,-0.1128,-0.114,-0.1072,-0.1101,-0.1117,-0.1115,-0.1057,-0.1058,-0.1229,0,0,0,-0.1172,-0.1153,-0.1177,-0.1163,-0.1157,-0.1164,-0.1208,-0.1145,-0.1138,-0.1102,-0.1117,-0.1114,-0.1057,-0.1058,-0.1224,-0.1307,0,0,0,-0.1157,-0.1152,-0.1161,-0.1163,-0.1191,-0.1167,-0.1174,-0.1145,-0.1155,-0.1119,-0.1114,-0.1057,-0.1058,-0.1219,-0.1297,-0.1442,0,0,0,-0.113,-0.1159,-0.116,-0.12,-0.1191,-0.1235,-0.1175,-0.1192,-0.1172,-0.1116,-0.1057,-0.1058,-0.1217,-0.1291,-0.1435,-0.1238,-0.1255,0,0,-0.1159,-0.1162,-0.119,-0.1194,-0.1256,-0.1228,-0.129,-0.1239,-0.1158,-0.1066,-0.1066,-0.1225,-0.1296,-0.144,-0.1298,-0.1314,0,0,0,-0.1196,-0.1211,-0.1231,-0.1265,-0.129,-0.134,-0.1292,-0.1305,-0.1279,-0.1154,-0.1198,-0.1237,-0.1324,-0.1188,-0.12,-0.1063,-0.1063,-0.1063,-0.1063,-0.1183,-0.1226,-0.1272,-0.132,-0.1352,-0.1406,-0.1473,-0.1463,-0.1339,-0.1375,-0.1357,-0.1553,-0.1406,-0.1414,-0.1326,-0.1327,-0.1328,-0.1328,-0.1329,-0.1211,-0.1232,-0.1299,-0.1356,-0.1425,-0.1465,-0.1586,-0.1592,-0.1677,-0.1525,-0.1601,-0.1347,-0.1438,-0.1342,-0.1339,-0.1337,-0.1336,-0.1335,-0.1334,-0.1177,-0.1196,-0.1242,-0.1326,-0.1426,-0.1501,-0.1678,-0.1762,-0.1806,-0.19,-0.1705,-0.1698,-0.1699,-0.1903,-0.1904,-0.1905,-0.1906,-0.1907,-0.1907,-0.1103,-0.1162,-0.1181,-0.1291,-0.1341,-0.1477,-0.1724,-0.1847,-0.1913,-0.1879,-0.1877,-0.1747,-0.1729,-0.1731,-0.1923,-0.192,-0.1918,-0.1917,-0.1916,-0.1044,-0.1053,-0.1085,-0.1128,-0.1269,-0.1375,-0.1652,-0.1834,-0.1989,-0.1983,-0.189,-0.1885,-0.1821,-0.1803,-0.1805,-0.2007,-0.2007,-0.2007,-0.2007,-0.0963,-0.0984,-0.0972,-0.1015,-0.1139,-0.1311,-0.1435,-0.1563,-0.1717,-0.1728,-0.1741,-0.1529,-0.153,-0.1437,-0.1428,-0.1417,-0.1519,-0.1518,-0.1517,-0.0898,-0.0905,-0.0861,-0.091,-0.1044,-0.1207,-0.1235,-0.1176,-0.1273,-0.1501,-0.1687,-0.1968,-0.1676,-0.1672,-0.1536,-0.152,-0.1503,0,0]},{"header":{"parameterUnit":"m.s-1","parameterCategory":2,"la1":30.2992,"la2":30.254,"lo1":-89.0895,"lo2":-89.0443,"dy":0.0025,"dx":0.0025,"nx":19,"ny":19,"refTime":"2026-05-16T09:00:00:Z","depth":"2","parameterNumber":3,"parameterNumberName":"V-component_of_CURRENTS"},"data":[0,0,0,0.0092,0.0094,0.0218,0.0219,0.0344,0.0345,0,0,0,0,0,0,0,0,0,0,0,0.0044,0.0044,0.0092,0.0094,0.0218,0.0219,0.0344,0.0345,0,0,0,0,0,0,0,0,0,0,0,0.0043,0.0044,0.0044,0.0095,0.0218,0.0219,0.0343,0.0261,0,0,0,0,0,0,0,0,0,0,0.0146,0.0098,0.0044,0.0044,0.0095,0.0218,0.0219,0.0258,0.0266,0.0273,0,0.0282,0,0.0312,0.0351,0.0351,0,0,0,0.0108,0.0091,0.0126,0.0045,0.0096,0.0218,0.0166,0.0263,0.0273,0.0284,0.0284,0.029,0.0314,0.0351,0.0352,0.0332,0.0332,0,0,0.0101,0.0068,0.012,0.0132,0.0115,0.0162,0.017,0.0269,0.0271,0.0285,0.0293,0.0316,0.0352,0.0353,0.0333,0.0332,0,0,0,0.0072,0.0063,0.0098,0.0126,0.0149,0.0165,0.0174,0.0267,0.0279,0.0294,0.0318,0.0353,0.0354,0.0334,0.0333,0.03,0,0,0,0.0069,0.0045,0.0094,0.0076,0.0147,0.0213,0.0169,0.0272,0.0284,0.0317,0.0353,0.0355,0.0335,0.0334,0.0303,0.0232,0,0,0,0.004,0.0043,0.0053,0.0074,0.0123,0.0213,0.0231,0.0276,0.0297,0.0351,0.0355,0.0336,0.0334,0.0306,0.0238,0.0227,0,0,0,0.0009,-0.001,0.0052,0.0038,0.0121,0.0139,0.0231,0.0277,0.0317,0.0353,0.0335,0.0333,0.0307,0.0242,0.023,0.0338,0.0332,0,0,-0.0039,-0.0016,-0.0026,0.0032,0.002,0.0124,0.013,0.0242,0.0281,0.0305,0.0306,0.0302,0.0238,0.0227,0.0211,0.021,0,0,0,-0.0057,-0.0071,-0.0064,-0.0049,-0.0006,0.0035,0.0145,0.0201,0.0257,0.0293,0.0267,0.0225,0.0221,0.0292,0.0289,0.0323,0.0323,0.0323,0.0323,-0.0165,-0.0137,-0.0173,-0.0139,-0.0117,-0.0013,0.003,0.0112,0.019,0.0204,0.0175,0.01,0.0175,0.0174,0.0178,0.0178,0.0178,0.0178,0.0177,-0.0269,-0.029,-0.0263,-0.0283,-0.0222,-0.0193,-0.0078,0.0008,0.0057,0.0115,0.0116,0.0222,0.017,0.0174,0.0175,0.0175,0.0176,0.0176,0.0176,-0.0344,-0.0353,-0.036,-0.039,-0.0382,-0.0294,-0.0301,-0.0182,-0.0036,-0.0035,0.0076,0.0078,0.0089,-0.0009,-0.0009,-0.0009,-0.001,-0.001,-0.001,-0.0406,-0.0421,-0.0482,-0.0503,-0.0528,-0.053,-0.0436,-0.0372,-0.0161,-0.0008,-0.0005,0.0037,0.0043,0.0076,-0.0016,-0.0015,-0.0014,-0.0014,-0.0013,-0.0477,-0.0485,-0.0591,-0.0642,-0.073,-0.0791,-0.067,-0.0405,-0.0286,-0.0122,0.0036,0.0037,0.0053,0.0058,0.009,0.0006,0.0006,0.0006,0.0006,-0.0519,-0.0534,-0.0688,-0.0813,-0.0931,-0.0924,-0.0768,-0.0387,-0.0048,0.0095,0.009,0.0173,0.0171,0.0198,0.0199,0.0236,0.0189,0.0189,0.0189,-0.0565,-0.0612,-0.0736,-0.087,-0.1023,-0.1058,-0.082,-0.0235,0.0178,0.0192,0.0071,0.0029,0.0145,0.0144,0.0183,0.0185,0.0243,0,0]}],[{"header":{"parameterUnit":"m.s-1","parameterCategory":2,"la1":30.2992,"la2":30.254,"lo1":-89.0895,"lo2":-89.0443,"dy":0.0025,"dx":0.0025,"nx":19,"ny":19,"refTime":"2026-05-16T09:00:00:Z","depth":"4","parameterNumber":2,"parameterNumberName":"U-component_of_CURRENTS"},"data":[0,0,0,-0.082,-0.0822,-0.0886,-0.0886,-0.092,-0.092,0,0,0,0,0,0,0,0,0,0,0,-0.0796,-0.0797,-0.082,-0.0822,-0.0886,-0.0886,-0.092,-0.092,0,0,0,0,0,0,0,0,0,0,0,-0.0796,-0.0797,-0.0797,-0.0822,-0.0886,-0.0886,-0.092,-0.0882,0,0,0,0,0,0,0,0,0,0,-0.0825,-0.0812,-0.0797,-0.0798,-0.0823,-0.0886,-0.0886,-0.088,-0.0884,-0.088,0,-0.0897,0,-0.0913,-0.0922,-0.0922,0,0,0,-0.0815,-0.0809,-0.0829,-0.0798,-0.0823,-0.0885,-0.0855,-0.0883,-0.0887,-0.0885,-0.0898,-0.0899,-0.0914,-0.0922,-0.0922,-0.0946,-0.0946,0,0,-0.0811,-0.0803,-0.0826,-0.0832,-0.0849,-0.0853,-0.0857,-0.0886,-0.0891,-0.0898,-0.09,-0.0914,-0.0923,-0.0923,-0.0946,-0.0946,0,0,0,-0.0806,-0.08,-0.082,-0.083,-0.0847,-0.0855,-0.086,-0.089,-0.0898,-0.0901,-0.0914,-0.0923,-0.0923,-0.0946,-0.0946,-0.0992,0,0,0,-0.0804,-0.0798,-0.0819,-0.0814,-0.0847,-0.0876,-0.0863,-0.0895,-0.09,-0.0914,-0.0923,-0.0923,-0.0946,-0.0946,-0.0991,-0.101,0,0,0,-0.0792,-0.0797,-0.0807,-0.0813,-0.0845,-0.0876,-0.0886,-0.0897,-0.0908,-0.0922,-0.0923,-0.0946,-0.0946,-0.099,-0.1008,-0.1027,0,0,0,-0.0775,-0.0788,-0.0807,-0.0829,-0.0844,-0.0879,-0.0886,-0.0911,-0.0924,-0.0923,-0.0946,-0.0946,-0.0989,-0.1007,-0.1026,-0.0971,0,0,0,-0.0777,-0.0788,-0.0801,-0.0821,-0.0862,-0.0869,-0.0907,-0.0928,-0.0922,-0.0931,-0.0933,-0.0991,-0.1008,-0.1027,-0.0977,0,0,0,0,-0.0793,-0.0803,-0.0816,-0.0853,-0.0882,-0.0924,-0.0939,-0.0938,-0.096,-0.0933,-0.098,-0.0989,-0.1,-0.0963,-0.0946,-0.0946,-0.0946,-0.0946,-0.0946,-0.0773,-0.0807,-0.084,-0.0886,-0.0922,-0.096,-0.0967,-0.0971,-0.0975,-0.0987,-0.1019,-0.1054,-0.1016,-0.1009,-0.101,-0.101,-0.101,-0.101,-0.101,-0.0774,-0.0786,-0.0866,-0.0919,-0.0983,-0.1031,-0.1037,-0.1033,-0.1043,-0.104,-0.1048,-0.1004,-0.1015,-0.1014,-0.1013,-0.1013,-0.1012,-0.1012,-0.1012,-0.0733,-0.0745,-0.0811,-0.0912,-0.1022,-0.1094,-0.1134,-0.1129,-0.1096,-0.1097,-0.1078,-0.1082,-0.1087,-0.1131,-0.1131,-0.1131,-0.1131,-0.1132,-0.1132,-0.0656,-0.0714,-0.0773,-0.0906,-0.1008,-0.113,-0.1206,-0.1202,-0.1193,-0.112,-0.1139,-0.1094,-0.109,-0.1093,-0.1134,-0.1134,-0.1134,-0.1133,-0.1133,-0.0577,-0.0599,-0.0662,-0.0761,-0.1008,-0.1108,-0.1219,-0.1228,-0.1218,-0.1165,-0.1112,-0.1112,-0.109,-0.1086,-0.1088,-0.1129,-0.1128,-0.1128,0,-0.0495,-0.0519,-0.057,-0.0702,-0.0898,-0.108,-0.1126,-0.1168,-0.1125,-0.1086,-0.1171,-0.1109,-0.1108,-0.108,-0.1076,-0.1077,0,0,0,-0.0437,-0.044,-0.0458,-0.0598,-0.0851,-0.1014,-0.1139,-0.1116,-0.1143,-0.114,-0.1114,-0.1118,-0.1174,-0.1143,-0.1108,-0.1103,-0.1106,0,0]},{"header":{"parameterUnit":"m.s-1","parameterCategory":2,"la1":30.2992,"la2":30.254,"lo1":-89.0895,"lo2":-89.0443,"dy":0.0025,"dx":0.0025,"nx":19,"ny":19,"refTime":"2026-05-16T09:00:00:Z","depth":"4","parameterNumber":3,"parameterNumberName":"V-component_of_CURRENTS"},"data":[0,0,0,-0.0115,-0.0114,-0.0064,-0.0064,0.004,0.0041,0,0,0,0,0,0,0,0,0,0,0,-0.0132,-0.0132,-0.0115,-0.0114,-0.0064,-0.0064,0.004,0.0041,0,0,0,0,0,0,0,0,0,0,0,-0.0132,-0.0132,-0.0132,-0.0114,-0.0064,-0.0064,0.0039,-0.0006,0,0,0,0,0,0,0,0,0,0,-0.0059,-0.0087,-0.0132,-0.0132,-0.0114,-0.0064,-0.0064,-0.0009,-0.0004,0.0026,0,0.0029,0,0.0035,0.0048,0.0048,0,0,0,-0.0107,-0.0091,-0.0076,-0.0132,-0.0114,-0.0064,-0.0085,-0.0006,-0.0,0.0033,0.003,0.0034,0.0037,0.0049,0.0049,0.0177,0.0177,0,0,-0.011,-0.0121,-0.008,-0.0072,-0.0106,-0.0086,-0.0083,-0.0003,0.0001,0.0031,0.0036,0.0039,0.0049,0.005,0.0176,0.0177,0,0,0,-0.0123,-0.0124,-0.0111,-0.0076,-0.0071,-0.0085,-0.0081,-0.0002,0.0002,0.0037,0.004,0.005,0.0051,0.0175,0.0176,0.0203,0,0,0,-0.0124,-0.0132,-0.0112,-0.0118,-0.0073,-0.0042,-0.0083,-0.0003,0.0006,0.0039,0.005,0.0052,0.0175,0.0176,0.0201,0.0189,0,0,0,-0.0134,-0.0132,-0.0128,-0.0119,-0.0101,-0.0044,-0.0034,-0.0001,0.0008,0.0048,0.0053,0.0174,0.0176,0.0199,0.0187,0.0208,0,0,0,-0.0145,-0.0139,-0.0129,-0.012,-0.0101,-0.0046,-0.0035,0.0012,0.0047,0.0051,0.0175,0.0176,0.0199,0.0186,0.0206,0.0103,0,0,0,-0.0143,-0.0139,-0.0134,-0.0124,-0.0095,-0.0052,0.0018,0.0064,0.0081,0.0151,0.0154,0.0202,0.0187,0.0208,0.0188,0,0,0,0,-0.0137,-0.0139,-0.0125,-0.0111,-0.0063,0.0005,0.0058,0.01,0.0167,0.0107,0.0223,0.0213,0.0225,0.0162,0.0183,0.0183,0.0183,0.0183,0.0183,-0.0154,-0.0141,-0.0135,-0.0103,-0.005,0.0054,0.0115,0.0184,0.0205,0.0244,0.0252,0.0306,0.0243,0.0284,0.0284,0.0284,0.0284,0.0284,0.0284,-0.0181,-0.0183,-0.0152,-0.0147,-0.0058,0.0018,0.0172,0.0216,0.0306,0.0306,0.0317,0.0216,0.0288,0.0287,0.0286,0.0286,0.0286,0.0286,0.0285,-0.0203,-0.0202,-0.0214,-0.0212,-0.0129,-0.0007,0.0112,0.0228,0.0302,0.0336,0.0274,0.0321,0.0299,0.0352,0.0352,0.0352,0.0352,0.0352,0.0352,-0.0225,-0.0231,-0.0292,-0.0267,-0.0256,-0.0142,0.0076,0.0164,0.0281,0.0281,0.0343,0.0328,0.0326,0.0303,0.0353,0.0353,0.0353,0.0353,0.0352,-0.0244,-0.0268,-0.0358,-0.0389,-0.0366,-0.0258,-0.0055,0.0138,0.0212,0.024,0.0257,0.0261,0.0236,0.0236,0.0209,0.0232,0.0231,0.023,0,-0.0259,-0.0279,-0.0426,-0.0496,-0.0479,-0.0313,-0.0166,-0.0012,0.0108,0.0071,0.0177,0.0187,0.0193,0.0155,0.0154,0.0116,0,0,0,-0.0279,-0.0317,-0.0435,-0.0532,-0.0529,-0.0295,-0.0112,-0.0067,0.0073,0.0158,0.0201,0.0208,0.0297,0.0356,0.0327,0.0325,0.0287,0,0]}]]